Tracking 17631 objects as of 3-May-2016
HD Live streaming from Space Station
objects crossing your sky now

IRIDIUM 33 DEB

Track IRIDIUM 33 DEB now!
10-day predictions


NORAD ID: 34150
Int'l Code: 1997-051ED
Perigee: 681.9 km
Apogee: 784.6 km
Inclination: 86.5 °
Period: 99.3 minutes
Semi major axis: 7104 km
RCS: 0.0227 m2 (small)
Launch date: September 14, 1997
Source: United States (US)
Launch site: TYURATAM MISSILE AND SPACE COMPLEX (TTMTR)

Note: This is SATELLITE DEBRIS
Your satellite tracking list
Your tracking list is empty





NASA's NSSDC Master Catalog

Two Line Element Set (TLE):
1 34150U 97051ED  16123.07890772  .00004238  00000-0  10566-2 0  9995
2 34150  86.4901 139.0404 0072277 214.9601 203.4649 14.49865197376684
Source of the keplerian elements: AFSPC

N2YO: 412